Regional Weather Roundup
Issued by NWS Upton, NY

Current Version | Previous Version | Graphics & Text | Print | Product List | Glossary Off
Versions: 1 2 3 4 5 6 7 8 9 10 11 12 13 14 15 16 17 18 19 20 21 22 23 24 25 26 27 28 29 30 31 32 33 34 35 36 37 38 39 40 41 42 43 44 45 46 47 48 49 50

106
ASUS41 KOKX 021608
RWROKX

REGIONAL WEATHER ROUNDUP
NATIONAL WEATHER SERVICE NEW YORK NY
1100 AM EST FRI DEC 02 2016

NOTE: "FAIR" INDICATES FEW OR NO CLOUDS BELOW 12,000 FEET WITH NO
SIGNIFICANT WEATHER AND/OR OBSTRUCTIONS TO VISIBILITY.

NYZ071-072-176-178-NJZ106-104-021700-
NEW YORK CITY METRO AREA

CITY           SKY/WX    TMP DP  RH WIND       PRES   REMARKS
Central Park   SUNNY     47  30  51 W9        29.93F
Wall St Helipt MOSUNNY   50  34  54 VRB7G18   29.91F
Bronx Bot Gard   N/A     46  30  53 SW14      29.91F
LaGuardia APRT MOSUNNY   49  31  49 NW16      29.90F
Kennedy INTL   PTSUNNY   49  30  48 W18G24    29.91F
Breezy Point     N/A     46 N/A N/A W10G21      N/A
Newark/Liberty PTSUNNY   48  31  51 W20G28    29.91F
Teterboro      MOSUNNY   47  30  51 W17       29.89F
$$

NYZ177-179-078>081-021700-
LONG ISLAND NEW YORK

CITY           SKY/WX    TMP DP  RH WIND       PRES   REMARKS
Jones Beach      N/A     46 N/A N/A W18G24      N/A
Matinecock PT  NOT AVBL
Farmingdale    SUNNY     48  31  51 NW13G21   29.89F
MacArthur/ISP  PTSUNNY   49  31  49 W16G23    29.88F
Shirley        SUNNY     48  32  53 NW17G24   29.88F
Westhampton    SUNNY     48  30  49 NW15G23   29.88F
Southampton      N/A     48  36  61 W10       29.83F
Bridgehampton  NOT AVBL
East Hampton     N/A     47  33  58 W13G18    29.86F
Montauk          N/A     47  35  63 W16G25    29.86F
$$

NYZ052-065-067-021700-
HUDSON VALLEY

CITY           SKY/WX    TMP DP  RH WIND       PRES   REMARKS
White Plains   MOSUNNY   47  30  51 W13G23    29.86F
Newburgh       MOSUNNY   46  34  61 W23G35    29.88S
Montgomery     PTSUNNY   48  32  53 W13G22    29.86F
Poughkeepsie   MOSUNNY   47  31  53 W15G26    29.85F
Albany         PTSUNNY   46  32  58 W17       29.80F
$$

NJZ001-105-106-008-010-013-015-019>022-104-021700-
NEW JERSEY

CITY           SKY/WX    TMP DP  RH WIND       PRES   REMARKS
Newark/Liberty PTSUNNY   48  31  51 W20G28    29.91F
Teterboro      MOSUNNY   47  30  51 W17       29.89F
Caldwell       SUNNY     47  30  51 W9        29.91F
Somerville     SUNNY     48  30  49 W14G22    29.92F
Linden           N/A     48  30  50 W18G30    29.92F
Sussex         CLOUDY    45  33  63 SW8       29.89F
Andover          N/A     45  31  58 W9        29.90F
Trenton        SUNNY     48  29  47 NW16G23   29.95F
Millville      SUNNY     49  30  48 W18G24    30.01S
Atlantic City  SUNNY     49  28  44 W13G23    29.99F
Wrightstown    SUNNY     48  30  50 NW16      29.94F
Toms River     SUNNY     48  30  49 W20G28    29.96F
Belmar         SUNNY     48  30  49 W17G28    29.94F
$$

PAZ047>061-062-071-021700-
EASTERN PENNSYLVANIA

CITY           SKY/WX    TMP DP  RH WIND       PRES   REMARKS
Philadelphia   PTSUNNY   48  28  46 W16       30.00S
Allentown      SUNNY     47  30  51 W12G21    29.95F
Scranton       CLOUDY    42  31  64 SW12G20   29.90F
$$

CTZ002-004>006-009-010-012-RIZ004-006-007-MAZ004-011-015-021700-
SOUTHERN NEW ENGLAND
 IN CT

CITY           SKY/WX    TMP DP  RH WIND       PRES   REMARKS
Bradley INTL   PTSUNNY   47  32  56 SW5       29.82F
Hartford       SUNNY     47  32  56 SW6       29.83F
Danbury        SUNNY     47  31  53 W15G21    29.86F
Wtrbury/Oxford MOSUNNY   46  28  49 W7G16     29.84F
Bridgeport     SUNNY    N/A N/A N/A W17       29.86F
Meriden        SUNNY     50  30  46 W9        29.84F
New Haven      MOSUNNY   48  33  56 W7        29.85F
Chester          N/A     45  30  57 NW8       29.83F
Groton         MOSUNNY   51  32  48 W10       29.84F
Wilimantic     PTSUNNY   46  32  58 SW7       29.83F

 IN RI

CITY           SKY/WX    TMP DP  RH WIND       PRES   REMARKS
Providence     MOSUNNY   48  30  49 W10G26    29.81F
Block Island   MOSUNNY   47  37  68 W14G26    29.84F
Westerly       SUNNY     49  29  46 W8G16     29.84F
 IN MA

CITY           SKY/WX    TMP DP  RH WIND       PRES   REMARKS
Boston         MOSUNNY   49  32  52 W18G29    29.77F
Worcester      SUNNY     42  29  59 W16G28    29.76F
Westfield      MOSUNNY   48  32  53 W15G22    29.80F
Provincetown   SUNNY     48  34  58 W18G24    29.77F
Nantucket      SUNNY     50  35  56 W22G32    29.80F
$$

ANZ330-335-338-340-345-350-353-355-021700-
COASTAL MARINE OBSERVATIONS


STATION/POSITION TIME  SKY/WX   TEMP    WIND        PRES    VSBY  WAVE
                                AIR SEA DIR/SP/G                  HT/PER
                 (UTC)          (F)     (DEG/KT/KT) (MB)    (MI)  (FT/S)
NY HARB ENTRANCE 1450            46 54  290/ 25/ 29 1012.6          4/ 4
20 S FIRE ISLAND 1450            46 55  290/ 21/ 25 1012.8          6/ 6
GREAT SOUTH BAY  1530            46 45                N/A
23 SSW MONTAUK P 1450            46 56  270/ 23/ 27 1011.8          6/ 7
15 E BARNEGAT LI 1530               54                N/A           4/ 4
HUDSON CANYON    1450            49 59              1013.5          8/ 6
KINGS POINT      1542            46 49              1012.4
EXECUTION ROCKS  1545            47     260/ 14/ 21   N/A
CENTRAL LI SOUND NOT AVBL
EASTERN LI SOUND NOT AVBL
ROBBINS REEF     1542            46     290/ 20/ 24 1012.9
$$


>>>>>>>>>>>>>>>>>>>>>>>>>>>> KEY <<<<<<<<<<<<<<<<<<<<<<<<<<<
>                                                          <
>     SKY/WX - Sky Condition/Present Weather               <
>     TMP    - Temperature in Fahrenheit                   <
>     DP     - Dew Point in Fahrenheit                     <
>     RH     - Relative Humidity in Percent                <
>     WIND   - Direction (from) and Speed in MPH           <
>     PRES   - Mean Sea Level Pressure (inches of Hg)      <
>     WCI    - Wind Chill Index                            <
>     VSB    - VISIBILITY IN MILES                         <
>     HX     - HEAT INDEX                                  <
>     TC     - TEMPERATURE IN CELSIUS                      <
>     VRB    - VARIABLE WIND DIRECTION                     <
>                                                          <
>>>>>>>>>>>>>>>>>>>>>>>>>>>> KEY <<<<<<<<<<<<<<<<<<<<<<<<<<<




USA.gov is the U.S. government's official web portal to all federal, state and local government web resources and services.